ZHONGXING-6D

Last updated on Mon Oct 14 2024 00:02:41 GMT+0000 (Coordinated Universal Time)

1 52255U 22038A 24286.59238809 -.00000354 00000+0 00000+0 0 9991 2 52255 0.0519 256.8230 0002568 343.8622 119.3182 1.00270519 9280
UTC large
Height (km)
Speed (km/s)
/
Latitude / Longitude
Inclination (degrees)
Orbital Period (minutes)
Azimuth
Elevation
Range (km)
Doppler Factor

Next 0 passes for location: London (51.5072 / 0.1276)

Sorry there are no passes over London.